Fort Bridger AP, Fort Bridger, WY

12:18 AM MDT on September 26, 2017 (GMT -0600)
Fort Bridger

Weather History for KFBR - May, 2014

Change the Weather History Date:

Sunday, May 18, 2014

  Actual Average (KEVW) Record (KEVW)
Temperature  
Mean Temperature 58 °F -  
Max Temperature 71 °F 59 °F 77 °F (2006)
Min Temperature 46 °F 36 °F 24 °F (2017)
Degree Days  
Heating Degree Days 6    
Growing Degree Days 8 (Base 50)    
Moisture  
Dew Point 24 °F    
Average Humidity 28    
Maximum Humidity 48    
Minimum Humidity 15    
Precipitation  
Precipitation 0.00 in - - ()
Sea Level Pressure  
Sea Level Pressure 29.88 in    
Wind  
Wind Speed 10 mph (West)    
Max Wind Speed 26 mph    
Max Gust Speed 38 mph    
Visibility 10 miles    
Events      
Averages and records for this station are not official NWS values.
T = Trace of Precipitation, MM = Missing Value Source: NWS Daily Summary

Daily Weather History Graph

Daily Weather History Graph

Search for Another Location

Airport or City:

Trip Planner

Search our weather history database for the weather conditions in past years. The results will help you decide how hot, cold, wet, or windy it might be!

Date:

Astronomy

May. 18, 2014 Rise Set
Actual Time 5:59 AM MDT 8:36 PM MDT
Civil Twilight 5:28 AM MDT 9:08 PM MDT
Nautical Twilight 4:48 AM MDT 9:48 PM MDT
Astronomical Twilight 4:03 AM MDT 10:33 PM MDT
Moon No Moon Rise 9:53 AM MDT (5/18)
Length of Visible Light 15h 40m
Length of Day
14h 36m
Waning Gibbous, 80% of the Moon is Illuminated
May 18
Waning Gibbous
May 21
Last Quarter
May 28
New
Jun 5
First Quarter
Jun 12
Full

Hourly Weather History & Observations

Time (MDT) Temp. Dew Point Humidity Pressure Visibility Wind Dir Wind Speed Gust Speed Precip Events Conditions
12:15 AM 53.6 °F 30.9 °F 42% 29.98 in 10.0 mi South 5.8 mph - N/A   Clear
12:55 AM 53.1 °F 30.9 °F 43% 29.98 in 10.0 mi South 6.9 mph - N/A   Clear
1:15 AM 51.4 °F 31.1 °F 46% 29.96 in 10.0 mi SSW 6.9 mph - N/A   Clear
1:35 AM 51.3 °F 28.8 °F 42% 29.96 in 10.0 mi SSW 9.2 mph - N/A   Clear
1:55 AM 48.2 °F 29.1 °F 48% 29.95 in 10.0 mi SW 3.5 mph - N/A   Clear
2:15 AM 50.5 °F 29.5 °F 44% 29.95 in 10.0 mi Calm Calm - N/A   Clear
2:35 AM 49.8 °F 30.4 °F 47% 29.94 in 10.0 mi Calm Calm - N/A   Clear
2:55 AM 48.2 °F 29.5 °F 48% 29.93 in 10.0 mi Calm Calm - N/A   Clear
3:15 AM 53.1 °F 26.2 °F 35% 29.93 in 10.0 mi Calm Calm - N/A   Clear
3:35 AM 46.9 °F 27.3 °F 46% 29.93 in 10.0 mi Calm Calm - N/A   Clear
3:55 AM 50.0 °F 27.1 °F 41% 29.93 in 10.0 mi Calm Calm - N/A   Clear
4:15 AM 50.2 °F 30.0 °F 46% 29.92 in 10.0 mi Calm Calm - N/A   Clear
4:35 AM 49.8 °F 27.9 °F 43% 29.91 in 10.0 mi North 3.5 mph - N/A   Clear
4:55 AM 48.4 °F 25.9 °F 42% 29.91 in 10.0 mi Calm Calm - N/A   Clear
5:15 AM 51.1 °F 24.6 °F 36% 29.91 in 10.0 mi West 5.8 mph - N/A   Clear
5:35 AM 51.6 °F 23.0 °F 33% 29.90 in 10.0 mi WSW 8.1 mph - N/A   Clear
5:55 AM 48.4 °F 25.0 °F 40% 29.90 in 10.0 mi WSW 9.2 mph - N/A   Clear
6:15 AM 49.1 °F 24.1 °F 38% 29.90 in 10.0 mi WSW 6.9 mph - N/A   Clear
6:35 AM 49.3 °F 24.1 °F 37% 29.90 in 10.0 mi West 6.9 mph - N/A   Clear
6:55 AM 49.6 °F 26.4 °F 41% 29.90 in 10.0 mi West 4.6 mph - N/A   Clear
7:15 AM 49.6 °F 30.4 °F 48% 29.90 in 10.0 mi Calm Calm - N/A   Clear
7:35 AM 52.7 °F 30.9 °F 43% 29.90 in 10.0 mi WSW 3.5 mph - N/A   Clear
7:55 AM 54.1 °F 29.3 °F 39% 29.90 in 10.0 mi WSW 3.5 mph - N/A   Clear
8:15 AM 56.7 °F 29.7 °F 36% 29.90 in 10.0 mi WSW 4.6 mph - N/A   Clear
8:35 AM 58.5 °F 31.1 °F 35% 29.90 in 10.0 mi West 6.9 mph - N/A   Clear
8:55 AM 61.5 °F 30.9 °F 32% 29.89 in 10.0 mi WSW 11.5 mph - N/A   Clear
9:15 AM 62.8 °F 31.1 °F 30% 29.88 in 10.0 mi West 5.8 mph - N/A   Clear
9:35 AM 64.8 °F 27.3 °F 24% 29.89 in 10.0 mi WSW 15.0 mph - N/A   Clear
9:55 AM 64.8 °F 25.7 °F 23% 29.89 in 10.0 mi West 17.3 mph - N/A   Clear
10:20 AM 67.1 °F 23.7 °F 19% 29.88 in 10.0 mi West 18.4 mph 24.2 mph N/A   Clear
10:35 AM 67.6 °F 23.5 °F 19% 29.88 in 10.0 mi West 19.6 mph 26.5 mph N/A   Clear
10:55 AM 68.5 °F 23.2 °F 18% 29.87 in 10.0 mi West 19.6 mph 25.3 mph N/A   Clear
11:20 AM 68.5 °F 22.6 °F 18% 29.87 in 10.0 mi West 20.7 mph 28.8 mph N/A   Clear
11:35 AM 69.3 °F 21.9 °F 17% 29.86 in 10.0 mi West 18.4 mph 32.2 mph N/A   Clear
11:55 AM 69.1 °F 23.0 °F 18% 29.86 in 10.0 mi West 17.3 mph 28.8 mph N/A   Clear
12:15 PM 70.3 °F 23.2 °F 17% 29.86 in 10.0 mi West 21.9 mph 27.6 mph N/A   Clear
12:35 PM 71.2 °F 23.2 °F 16% 29.86 in 10.0 mi West 24.2 mph 38.0 mph N/A   Clear
12:55 PM 70.0 °F 22.3 °F 17% 29.85 in 10.0 mi West 19.6 mph 28.8 mph N/A   Clear
1:15 PM 70.9 °F 23.2 °F 17% 29.84 in 10.0 mi WNW 20.7 mph 27.6 mph N/A   Clear
1:35 PM 70.2 °F 22.6 °F 17% 29.85 in 10.0 mi West 20.7 mph 31.1 mph N/A   Clear
1:55 PM 69.8 °F 22.6 °F 17% 29.85 in 10.0 mi West 23.0 mph 35.7 mph N/A   Clear
2:15 PM 70.2 °F 22.3 °F 16% 29.85 in 10.0 mi West 23.0 mph 29.9 mph N/A   Clear
2:35 PM 70.0 °F 22.6 °F 17% 29.85 in 10.0 mi WNW 24.2 mph 32.2 mph N/A   Clear
2:55 PM 69.6 °F 23.5 °F 18% 29.85 in 10.0 mi West 25.3 mph 29.9 mph N/A   Clear
3:15 PM 69.6 °F 21.6 °F 16% 29.84 in 10.0 mi West 25.3 mph 32.2 mph N/A   Clear
3:35 PM 70.3 °F 20.8 °F 15% 29.84 in 10.0 mi West 23.0 mph 28.8 mph N/A   Clear
3:55 PM 70.3 °F 20.7 °F 15% 29.84 in 10.0 mi West 18.4 mph 34.5 mph N/A   Clear
4:15 PM 70.2 °F 20.8 °F 15% 29.84 in 10.0 mi WNW 24.2 mph 34.5 mph N/A   Clear
4:35 PM 69.3 °F 20.5 °F 16% 29.84 in 10.0 mi WNW 26.5 mph 34.5 mph N/A   Clear
4:55 PM 68.0 °F 20.3 °F 16% 29.84 in 10.0 mi West 26.5 mph 36.8 mph N/A   Clear
5:15 PM 65.7 °F 19.8 °F 17% 29.85 in 10.0 mi WNW 24.2 mph 32.2 mph N/A   Clear
5:35 PM 64.8 °F 19.4 °F 18% 29.86 in 10.0 mi WNW 25.3 mph 31.1 mph N/A   Clear
5:55 PM 63.9 °F 19.2 °F 18% 29.86 in 10.0 mi WNW 24.2 mph 29.9 mph N/A   Clear
6:15 PM 63.5 °F 18.9 °F 18% 29.86 in 10.0 mi WNW 25.3 mph 31.1 mph N/A   Clear
6:35 PM 62.6 °F 19.6 °F 19% 29.85 in 10.0 mi WNW 20.7 mph 26.5 mph N/A   Clear
6:55 PM 61.3 °F 18.3 °F 19% 29.85 in 10.0 mi WNW 21.9 mph 28.8 mph N/A   Clear
7:15 PM 61.7 °F 17.8 °F 18% 29.85 in 10.0 mi WNW 20.7 mph 28.8 mph N/A   Clear
7:35 PM 60.3 °F 17.1 °F 19% 29.85 in 10.0 mi WNW 20.7 mph 27.6 mph N/A   Clear
7:55 PM 59.2 °F 17.8 °F 20% 29.85 in 10.0 mi WNW 21.9 mph 28.8 mph N/A   Clear
8:15 PM 58.3 °F 18.1 °F 21% 29.86 in 10.0 mi West 16.1 mph 24.2 mph N/A   Clear
8:35 PM 57.6 °F 18.7 °F 22% 29.87 in 10.0 mi West 12.7 mph 21.9 mph N/A   Clear
8:55 PM 56.5 °F 19.6 °F 24% 29.86 in 10.0 mi WNW 12.7 mph - N/A   Clear
9:15 PM 56.1 °F 19.9 °F 24% 29.87 in 10.0 mi WNW 13.8 mph - N/A   Clear
9:35 PM 54.0 °F 20.1 °F 27% 29.87 in 10.0 mi WNW 12.7 mph - N/A   Clear
9:55 PM 52.2 °F 20.7 °F 29% 29.88 in 10.0 mi WNW 8.1 mph - N/A   Clear
10:15 PM 50.5 °F 21.2 °F 32% 29.89 in 10.0 mi Calm Calm - N/A   Clear
10:35 PM 50.9 °F 21.6 °F 32% 29.90 in 10.0 mi SW 3.5 mph - N/A   Clear
10:55 PM 47.8 °F 21.7 °F 36% 29.90 in 10.0 mi SW 8.1 mph - N/A   Clear
11:15 PM 48.9 °F 22.3 °F 35% 29.90 in 10.0 mi West 3.5 mph - N/A   Scattered Clouds
11:35 PM 49.8 °F 22.3 °F 34% 29.90 in 10.0 mi WSW 5.8 mph - N/A   Scattered Clouds